WXM80 ListenWXM80 Stop

You find our weather info also at:

UK Metoffice

WeatherCloud

Weather Underground

Northeastern Weather Network

AWEKAS

Citizen Weather Observer Program (CWOP)

HAMweather, WeatherForYou, PWS Weather


Weather Underground History page Text

Daily Summary for February 21, 2016 Units:  English    Metric   Both
« Previous Day
Next Day »
Daily Weekly Monthly Yearly Custom
  High: Low: Average:
Temperature: 54.1 °F 39.9 °F 49.2 °F
Dew Point: 42.2 °F 35.6 °F 37.9 °F
Humidity: 93 % 51 % 66 %
Wind Speed: 7.6 mph 0.0 mph 2.6 mph
Wind Gust: 11.5 mph - -
Wind:- - SW
Pressure: 29.97 in 29.77 in -
Precipitation: 0.02 in    
Historical Graphs
 
 
Tabular Data for February 21, 2016
Time Temperature Dew Point Pressure Wind Wind Speed Wind Gust Humidity Rainfall Rate (Hourly)
00:01 50.4 °F 40.2 °F 29.78 in SW 5.7 mph 8.1 mph 68 % 0.00 in
00:06 50.3 °F 40.1 °F 29.77 in SSW 4.7 mph 8.1 mph 68 % 0.00 in
00:11 50.3 °F 40.1 °F 29.77 in South 4.3 mph 6.9 mph 68 % 0.00 in
00:21 50.2 °F 40.4 °F 29.77 in SSW 5.4 mph 8.1 mph 69 % 0.00 in
00:26 50.2 °F 40.4 °F 29.78 in SW 4.6 mph 6.0 mph 69 % 0.00 in
00:31 50.2 °F 40.4 °F 29.78 in SSW 4.6 mph 8.1 mph 69 % 0.00 in
00:41 50.3 °F 40.5 °F 29.78 in SW 5.9 mph 7.0 mph 69 % 0.00 in
00:46 50.3 °F 40.5 °F 29.78 in WSW 2.2 mph 9.2 mph 69 % 0.00 in
00:52 50.4 °F 40.6 °F 29.79 in West 3.9 mph 6.0 mph 69 % 0.00 in
00:57 50.5 °F 40.3 °F 29.79 in WSW 4.2 mph 9.2 mph 68 % 0.00 in
01:02 50.5 °F 40.3 °F 29.79 in West 2.1 mph 3.5 mph 68 % 0.00 in
01:07 50.5 °F 40.3 °F 29.79 in SW 1.3 mph 3.5 mph 68 % 0.00 in
01:12 50.4 °F 40.2 °F 29.79 in SW 2.6 mph 3.5 mph 68 % 0.00 in
01:22 50.1 °F 39.9 °F 29.79 in SW 0.3 mph 2.3 mph 68 % 0.00 in
01:27 49.9 °F 39.8 °F 29.79 in SW 0.4 mph 2.0 mph 68 % 0.00 in
01:32 49.7 °F 39.6 °F 29.79 in SW 0.6 mph 1.2 mph 68 % 0.00 in
01:37 49.4 °F 39.3 °F 29.79 in SW 1.7 mph 2.3 mph 68 % 0.00 in
01:43 49.0 °F 39.3 °F 29.80 in SW 2.0 mph 3.5 mph 69 % 0.00 in
01:48 48.6 °F 39.3 °F 29.79 in SW 2.6 mph 5.8 mph 70 % 0.00 in
01:53 48.2 °F 39.2 °F 29.79 in SW 3.2 mph 5.8 mph 71 % 0.00 in
01:58 48.0 °F 39.4 °F 29.80 in SSW 3.3 mph 4.0 mph 72 % 0.00 in
02:03 47.9 °F 39.7 °F 29.80 in SW 3.0 mph 7.0 mph 73 % 0.00 in
02:08 47.9 °F 39.7 °F 29.79 in SW 2.5 mph 4.6 mph 73 % 0.00 in
02:13 47.9 °F 39.7 °F 29.80 in SSW 3.4 mph 4.6 mph 73 % 0.00 in
02:18 48.0 °F 39.8 °F 29.80 in SW 2.2 mph 3.5 mph 73 % 0.00 in
02:23 48.0 °F 39.8 °F 29.80 in SSW 2.0 mph 3.5 mph 73 % 0.00 in
02:28 48.1 °F 39.9 °F 29.80 in SSW 2.2 mph 5.0 mph 73 % 0.00 in
02:34 48.1 °F 39.5 °F 29.81 in SW 1.6 mph 3.5 mph 72 % 0.00 in
02:39 48.1 °F 39.5 °F 29.81 in WSW 2.3 mph 3.5 mph 72 % 0.00 in
02:44 48.2 °F 39.6 °F 29.81 in SSW 4.9 mph 9.2 mph 72 % 0.00 in
02:49 48.2 °F 39.6 °F 29.81 in SW 3.6 mph 6.9 mph 72 % 0.00 in
02:54 48.2 °F 39.6 °F 29.81 in SW 2.9 mph 6.9 mph 72 % 0.00 in
02:59 48.3 °F 39.7 °F 29.81 in SSW 1.9 mph 3.5 mph 72 % 0.00 in
03:04 48.2 °F 39.2 °F 29.81 in SW 2.4 mph 3.5 mph 71 % 0.00 in
03:09 48.2 °F 39.2 °F 29.81 in WSW 2.4 mph 3.5 mph 71 % 0.00 in
03:14 48.1 °F 39.5 °F 29.81 in WSW 2.5 mph 6.9 mph 72 % 0.00 in
03:19 48.1 °F 39.5 °F 29.81 in West 3.7 mph 3.7 mph 72 % 0.00 in
03:25 48.0 °F 39.4 °F 29.82 in SW 3.7 mph 4.6 mph 72 % 0.00 in
03:30 48.0 °F 39.4 °F 29.82 in WSW 2.4 mph 3.5 mph 72 % 0.00 in
03:35 48.0 °F 39.4 °F 29.82 in SW 1.7 mph 5.8 mph 72 % 0.00 in
03:40 48.0 °F 39.4 °F 29.83 in WSW 2.4 mph 4.6 mph 72 % 0.00 in
03:50 47.9 °F 39.3 °F 29.83 in SSW 2.6 mph 4.0 mph 72 % 0.00 in
03:55 47.8 °F 39.2 °F 29.83 in SW 2.1 mph 3.5 mph 72 % 0.00 in
04:00 47.8 °F 39.2 °F 29.83 in SW 2.8 mph 5.8 mph 72 % 0.00 in
04:05 47.7 °F 39.1 °F 29.83 in WSW 1.8 mph 3.5 mph 72 % 0.00 in
04:10 47.7 °F 39.1 °F 29.83 in WSW 2.1 mph 3.5 mph 72 % 0.00 in
04:16 47.6 °F 39.0 °F 29.83 in SW 1.8 mph 3.5 mph 72 % 0.00 in
04:21 47.6 °F 38.7 °F 29.84 in West 2.7 mph 10.4 mph 71 % 0.00 in
04:26 47.8 °F 38.5 °F 29.84 in WSW 5.5 mph 9.2 mph 70 % 0.00 in
04:31 48.2 °F 38.5 °F 29.84 in SSW 1.8 mph 3.5 mph 69 % 0.00 in
04:36 48.4 °F 38.7 °F 29.84 in SW 1.9 mph 4.0 mph 69 % 0.00 in
04:41 48.6 °F 38.5 °F 29.84 in SW 2.6 mph 5.8 mph 68 % 0.00 in
04:46 48.7 °F 38.6 °F 29.84 in WSW 0.8 mph 3.5 mph 68 % 0.00 in
04:51 48.6 °F 38.5 °F 29.85 in WSW 0.7 mph 2.3 mph 68 % 0.00 in
04:56 48.6 °F 38.5 °F 29.85 in WSW 1.7 mph 3.0 mph 68 % 0.00 in
05:01 48.4 °F 38.3 °F 29.86 in SW 2.4 mph 5.0 mph 68 % 0.00 in
05:07 48.1 °F 38.0 °F 29.86 in WSW 3.1 mph 5.0 mph 68 % 0.00 in
05:12 48.0 °F 38.3 °F 29.86 in South 0.7 mph 3.5 mph 69 % 0.00 in
05:17 47.8 °F 38.1 °F 29.86 in SW 1.8 mph 3.5 mph 69 % 0.00 in
05:27 47.3 °F 37.6 °F 29.87 in SSW 3.7 mph 5.8 mph 69 % 0.00 in
05:32 47.0 °F 37.4 °F 29.87 in SSW 2.2 mph 4.6 mph 69 % 0.00 in
05:37 46.9 °F 37.3 °F 29.87 in WSW 1.9 mph 5.8 mph 69 % 0.00 in
05:42 46.9 °F 37.3 °F 29.87 in WSW 3.7 mph 6.9 mph 69 % 0.00 in
05:47 47.0 °F 37.0 °F 29.87 in SW 4.3 mph 8.1 mph 68 % 0.00 in
05:52 47.2 °F 37.2 °F 29.87 in SW 5.9 mph 9.2 mph 68 % 0.00 in
05:58 47.4 °F 37.0 °F 29.87 in West 5.7 mph 5.8 mph 67 % 0.00 in
06:03 47.5 °F 37.1 °F 29.88 in WSW 4.3 mph 6.9 mph 67 % 0.00 in
06:13 47.9 °F 36.7 °F 29.87 in WSW 4.3 mph 8.1 mph 65 % 0.00 in
06:23 48.1 °F 36.5 °F 29.87 in SSW 1.8 mph 4.6 mph 64 % 0.00 in
06:28 48.2 °F 36.6 °F 29.88 in SW 5.3 mph 6.9 mph 64 % 0.00 in
06:33 48.1 °F 36.5 °F 29.87 in West 2.7 mph 5.8 mph 64 % 0.00 in
06:38 48.2 °F 36.2 °F 29.88 in WSW 2.7 mph 4.6 mph 63 % 0.00 in
06:44 48.2 °F 36.2 °F 29.88 in WSW 3.4 mph 10.4 mph 63 % 0.00 in
06:49 48.2 °F 36.2 °F 29.87 in SW 2.0 mph 3.5 mph 63 % 0.00 in
06:59 48.1 °F 36.5 °F 29.88 in SW 4.6 mph 6.9 mph 64 % 0.00 in
07:04 47.9 °F 36.3 °F 29.88 in SSW 3.7 mph 6.9 mph 64 % 0.00 in
07:09 47.7 °F 35.7 °F 29.89 in SW 2.9 mph 6.0 mph 63 % 0.00 in
07:14 47.7 °F 35.7 °F 29.89 in South 2.2 mph 5.8 mph 63 % 0.00 in
07:24 48.1 °F 35.7 °F 29.90 in South 2.0 mph 5.8 mph 62 % 0.00 in
07:30 48.3 °F 35.9 °F 29.90 in WSW 7.6 mph 9.2 mph 62 % 0.00 in
07:35 48.5 °F 36.1 °F 29.91 in WNW 5.5 mph 7.0 mph 62 % 0.00 in
07:40 48.7 °F 36.3 °F 29.91 in WSW 5.4 mph 10.4 mph 62 % 0.00 in
07:45 49.0 °F 36.5 °F 29.91 in WSW 2.4 mph 6.9 mph 62 % 0.00 in
07:50 49.3 °F 36.4 °F 29.91 in WSW 6.7 mph 11.5 mph 61 % 0.00 in
07:55 49.5 °F 36.6 °F 29.91 in WSW 5.0 mph 8.1 mph 61 % 0.00 in
08:00 49.7 °F 36.4 °F 29.91 in SW 3.4 mph 5.8 mph 60 % 0.00 in
08:05 49.7 °F 36.4 °F 29.91 in NW 2.6 mph 5.8 mph 60 % 0.00 in
08:10 49.9 °F 36.6 °F 29.91 in West 6.7 mph 11.5 mph 60 % 0.00 in
08:15 50.3 °F 36.1 °F 29.92 in SW 5.6 mph 10.4 mph 58 % 0.00 in
08:26 50.7 °F 36.0 °F 29.91 in West 5.6 mph 9.2 mph 57 % 0.00 in
08:31 51.1 °F 36.4 °F 29.92 in West 5.2 mph 10.4 mph 57 % 0.00 in
08:36 51.4 °F 36.7 °F 29.92 in SSW 3.9 mph 7.0 mph 57 % 0.00 in
08:41 51.5 °F 36.3 °F 29.92 in WSW 5.6 mph 9.2 mph 56 % 0.00 in
08:46 51.6 °F 36.4 °F 29.92 in SSW 3.2 mph 4.6 mph 56 % 0.00 in
08:51 51.8 °F 36.6 °F 29.92 in SW 3.8 mph 7.0 mph 56 % 0.00 in
09:01 51.9 °F 37.1 °F 29.91 in SSW 1.4 mph 3.5 mph 57 % 0.00 in
09:06 52.0 °F 37.2 °F 29.91 in WSW 4.1 mph 9.2 mph 57 % 0.00 in
09:12 52.0 °F 37.2 °F 29.91 in WSW 4.4 mph 7.0 mph 57 % 0.00 in
09:17 52.0 °F 37.7 °F 29.90 in West 2.7 mph 4.6 mph 58 % 0.00 in
09:22 52.0 °F 37.7 °F 29.91 in WSW 4.4 mph 5.8 mph 58 % 0.00 in
09:27 51.9 °F 37.6 °F 29.91 in WNW 3.6 mph 6.0 mph 58 % 0.00 in
09:32 51.9 °F 37.1 °F 29.90 in West 2.3 mph 7.0 mph 57 % 0.00 in
09:37 51.8 °F 37.5 °F 29.90 in WNW 2.6 mph 5.8 mph 58 % 0.00 in
09:42 51.7 °F 37.4 °F 29.90 in WNW 4.5 mph 8.1 mph 58 % 0.00 in
09:47 51.7 °F 37.4 °F 29.90 in West 3.7 mph 6.0 mph 58 % 0.00 in
09:57 51.7 °F 37.4 °F 29.91 in WSW 4.2 mph 6.9 mph 58 % 0.00 in
10:02 51.8 °F 37.0 °F 29.91 in NW 4.9 mph 10.4 mph 57 % 0.00 in
10:08 51.9 °F 37.1 °F 29.91 in West 6.8 mph 8.1 mph 57 % 0.00 in
10:13 51.9 °F 37.1 °F 29.90 in NW 2.4 mph 6.9 mph 57 % 0.00 in
10:18 52.1 °F 37.8 °F 29.91 in West 3.5 mph 5.8 mph 58 % 0.00 in
10:23 52.4 °F 37.6 °F 29.91 in West 4.0 mph 8.1 mph 57 % 0.00 in
10:28 52.6 °F 36.9 °F 29.91 in West 5.9 mph 11.5 mph 55 % 0.00 in
10:33 52.8 °F 37.5 °F 29.91 in WSW 3.6 mph 6.0 mph 56 % 0.00 in
10:38 53.0 °F 37.3 °F 29.92 in WNW 1.1 mph 6.9 mph 55 % 0.00 in
10:48 53.4 °F 37.2 °F 29.91 in SSW 2.0 mph 9.2 mph 54 % 0.00 in
10:53 53.6 °F 37.3 °F 29.91 in WSW 4.1 mph 8.1 mph 54 % 0.00 in
10:59 53.8 °F 37.5 °F 29.91 in WNW 3.8 mph 8.1 mph 54 % 0.00 in
11:04 54.1 °F 37.3 °F 29.91 in WNW 3.6 mph 9.2 mph 53 % 0.00 in
11:09 54.1 °F 37.3 °F 29.91 in WNW 3.9 mph 8.1 mph 53 % 0.00 in
11:14 54.1 °F 37.3 °F 29.90 in NW 2.9 mph 6.9 mph 53 % 0.00 in
11:19 54.1 °F 36.9 °F 29.91 in NW 2.7 mph 8.1 mph 52 % 0.00 in
11:24 54.0 °F 36.8 °F 29.91 in SW 4.0 mph 6.9 mph 52 % 0.00 in
11:29 53.9 °F 37.1 °F 29.91 in SW 4.3 mph 9.2 mph 53 % 0.00 in
11:39 53.8 °F 36.6 °F 29.91 in WNW 4.4 mph 6.9 mph 52 % 0.00 in
11:44 53.7 °F 37.0 °F 29.91 in NW 2.5 mph 3.5 mph 53 % 0.00 in
11:50 53.6 °F 36.9 °F 29.90 in NW 5.2 mph 8.1 mph 53 % 0.00 in
11:55 53.4 °F 36.7 °F 29.90 in WNW 4.2 mph 8.1 mph 53 % 0.00 in
12:00 53.1 °F 36.9 °F 29.90 in WNW 3.0 mph 10.4 mph 54 % 0.00 in
12:05 52.8 °F 36.6 °F 29.90 in WNW 2.9 mph 5.8 mph 54 % 0.00 in
12:10 52.6 °F 36.4 °F 29.90 in WNW 5.2 mph 11.5 mph 54 % 0.00 in
12:15 52.4 °F 36.2 °F 29.90 in WSW 3.7 mph 6.9 mph 54 % 0.00 in
12:20 52.3 °F 36.6 °F 29.90 in NW 3.3 mph 6.9 mph 55 % 0.00 in
12:25 52.2 °F 36.5 °F 29.90 in WNW 3.0 mph 3.5 mph 55 % 0.00 in
12:30 52.3 °F 36.6 °F 29.90 in WSW 3.0 mph 4.6 mph 55 % 0.00 in
12:35 52.3 °F 36.6 °F 29.89 in WNW 3.1 mph 5.8 mph 55 % 0.00 in
12:41 52.3 °F 36.6 °F 29.89 in West 1.7 mph 4.6 mph 55 % 0.00 in
12:46 52.3 °F 36.6 °F 29.89 in West 2.3 mph 5.8 mph 55 % 0.00 in
12:51 52.4 °F 36.7 °F 29.89 in WSW 4.7 mph 6.9 mph 55 % 0.00 in
12:56 52.4 °F 36.2 °F 29.88 in NW 3.1 mph 5.8 mph 54 % 0.00 in
13:01 52.5 °F 36.3 °F 29.88 in West 1.8 mph 6.9 mph 54 % 0.00 in
13:06 52.5 °F 36.3 °F 29.88 in WNW 3.0 mph 3.5 mph 54 % 0.00 in
13:11 52.6 °F 36.4 °F 29.87 in NW 2.1 mph 3.5 mph 54 % 0.00 in
13:21 52.7 °F 37.0 °F 29.87 in WNW 2.9 mph 6.0 mph 55 % 0.00 in
13:26 52.8 °F 36.6 °F 29.87 in WNW 1.6 mph 4.6 mph 54 % 0.00 in
13:32 52.9 °F 36.7 °F 29.87 in NW 1.3 mph 3.5 mph 54 % 0.00 in
13:37 53.0 °F 36.8 °F 29.87 in NW 0.3 mph 2.3 mph 54 % 0.00 in
13:42 53.1 °F 37.3 °F 29.86 in NW 0.9 mph 3.5 mph 55 % 0.00 in
13:47 53.1 °F 36.9 °F 29.86 in NW 1.4 mph 3.5 mph 54 % 0.00 in
13:52 53.2 °F 37.0 °F 29.86 in West 2.6 mph 3.5 mph 54 % 0.00 in
13:57 53.2 °F 36.5 °F 29.86 in NW 0.9 mph 2.3 mph 53 % 0.00 in
14:02 53.2 °F 37.4 °F 29.86 in NW 0.8 mph 3.0 mph 55 % 0.00 in
14:07 53.3 °F 37.1 °F 29.85 in NW 1.0 mph 2.3 mph 54 % 0.00 in
14:12 53.3 °F 37.1 °F 29.85 in NW 2.5 mph 3.5 mph 54 % 0.00 in
14:17 53.4 °F 36.2 °F 29.85 in WNW 3.5 mph 5.0 mph 52 % 0.00 in
14:23 53.4 °F 36.2 °F 29.85 in WNW 2.3 mph 3.5 mph 52 % 0.00 in
14:28 53.5 °F 36.3 °F 29.85 in West 1.4 mph 3.5 mph 52 % 0.00 in
14:33 53.5 °F 36.8 °F 29.85 in NW 2.3 mph 4.0 mph 53 % 0.00 in
14:38 53.5 °F 36.3 °F 29.85 in WNW 2.9 mph 5.8 mph 52 % 0.00 in
14:43 53.6 °F 36.4 °F 29.84 in NW 3.1 mph 3.5 mph 52 % 0.00 in
14:48 53.5 °F 36.3 °F 29.84 in WNW 2.1 mph 3.5 mph 52 % 0.00 in
14:53 53.5 °F 36.3 °F 29.85 in WNW 2.4 mph 3.5 mph 52 % 0.00 in
14:58 53.3 °F 35.6 °F 29.84 in WNW 1.5 mph 3.5 mph 51 % 0.00 in
15:03 53.2 °F 36.5 °F 29.84 in SW 0.6 mph 2.3 mph 53 % 0.00 in
15:08 53.1 °F 36.4 °F 29.85 in Calm     53 % 0.00 in
15:14 53.1 °F 36.9 °F 29.86 in SW 3.1 mph 4.6 mph 54 % 0.00 in
15:19 53.0 °F 36.3 °F 29.86 in SSW 2.4 mph 3.5 mph 53 % 0.00 in
15:24 53.0 °F 36.8 °F 29.86 in SW 2.1 mph 3.5 mph 54 % 0.00 in
15:29 53.0 °F 36.3 °F 29.87 in SW 3.6 mph 5.0 mph 53 % 0.00 in
15:34 53.0 °F 36.3 °F 29.87 in SSW 3.3 mph 4.6 mph 53 % 0.00 in
15:39 52.9 °F 36.2 °F 29.87 in SSW 1.1 mph 3.5 mph 53 % 0.00 in
15:44 52.9 °F 36.2 °F 29.87 in SW 0.6 mph 3.5 mph 53 % 0.00 in
15:49 52.9 °F 36.2 °F 29.87 in WSW 0.7 mph 3.5 mph 53 % 0.00 in
15:54 52.8 °F 36.6 °F 29.87 in SW 1.1 mph 3.5 mph 54 % 0.00 in
15:59 52.8 °F 36.6 °F 29.87 in SSW 1.6 mph 3.5 mph 54 % 0.00 in
16:05 52.8 °F 36.1 °F 29.87 in SSW 0.1 mph 1.2 mph 53 % 0.00 in
16:10 52.7 °F 36.5 °F 29.87 in Calm     54 % 0.00 in
16:15 52.6 °F 35.9 °F 29.87 in Calm     53 % 0.00 in
16:20 52.6 °F 36.4 °F 29.87 in Calm     54 % 0.00 in
16:25 52.6 °F 36.4 °F 29.87 in SSW 0.8 mph 2.3 mph 54 % 0.00 in
16:30 52.6 °F 36.4 °F 29.87 in Calm     54 % 0.00 in
16:35 52.5 °F 36.8 °F 29.86 in Calm     55 % 0.00 in
16:40 52.5 °F 35.8 °F 29.87 in SSW 0.1 mph 1.2 mph 53 % 0.00 in
16:45 52.4 °F 36.2 °F 29.87 in SSW 1.8 mph 3.5 mph 54 % 0.00 in
16:50 52.3 °F 36.1 °F 29.86 in SSW 0.7 mph 2.3 mph 54 % 0.00 in
16:56 52.2 °F 36.0 °F 29.86 in SSW 1.7 mph 3.5 mph 54 % 0.00 in
17:01 52.2 °F 36.0 °F 29.87 in SSW 1.1 mph 2.3 mph 54 % 0.00 in
17:06 52.0 °F 35.9 °F 29.87 in SW 1.7 mph 3.5 mph 54 % 0.00 in
17:11 52.0 °F 35.9 °F 29.87 in SW 0.5 mph 1.2 mph 54 % 0.00 in
17:16 51.9 °F 35.8 °F 29.87 in SW 0.3 mph 1.2 mph 54 % 0.00 in
17:21 51.9 °F 35.8 °F 29.87 in Calm     54 % 0.00 in
17:26 51.8 °F 36.1 °F 29.87 in Calm     55 % 0.00 in
17:31 51.8 °F 36.1 °F 29.88 in Calm     55 % 0.00 in
17:36 51.6 °F 36.4 °F 29.88 in Calm   1.2 mph 56 % 0.00 in
17:41 51.5 °F 36.3 °F 29.88 in Calm     56 % 0.00 in
17:47 51.4 °F 36.7 °F 29.88 in Calm     57 % 0.00 in
17:52 51.3 °F 36.6 °F 29.88 in Calm     57 % 0.00 in
17:57 51.2 °F 36.5 °F 29.88 in Calm   1.2 mph 57 % 0.00 in
18:02 51.1 °F 36.4 °F 29.88 in Calm     57 % 0.00 in
18:07 50.9 °F 36.6 °F 29.88 in Calm     58 % 0.00 in
18:12 50.8 °F 36.5 °F 29.89 in SW 0.7 mph 2.3 mph 58 % 0.00 in
18:17 50.7 °F 36.9 °F 29.89 in SW 1.5 mph 3.5 mph 59 % 0.00 in
18:22 50.5 °F 37.1 °F 29.89 in SW 0.8 mph 2.3 mph 60 % 0.00 in
18:27 50.5 °F 37.5 °F 29.89 in SW 0.8 mph 2.3 mph 61 % 0.00 in
18:32 50.3 °F 38.6 °F 29.89 in SW 1.0 mph 2.3 mph 64 % 0.00 in
18:38 50.2 °F 40.0 °F 29.89 in Calm     68 % 0.00 in
18:43 50.0 °F 41.0 °F 29.89 in Calm   2.3 mph 71 % 0.00 in
18:48 49.7 °F 40.7 °F 29.90 in SW 1.5 mph 3.5 mph 71 % 0.00 in
18:53 49.4 °F 40.7 °F 29.90 in SW 0.3 mph 2.3 mph 72 % 0.00 in
18:58 49.2 °F 40.9 °F 29.90 in Calm     73 % 0.00 in
19:03 49.1 °F 41.2 °F 29.90 in SW 0.4 mph 1.2 mph 74 % 0.00 in
19:08 48.8 °F 41.9 °F 29.91 in SW 1.2 mph 3.5 mph 77 % 0.00 in
19:13 48.5 °F 42.0 °F 29.91 in Calm   1.2 mph 78 % 0.00 in
19:18 48.3 °F 42.1 °F 29.91 in SW 0.1 mph 2.3 mph 79 % 0.00 in
19:23 48.1 °F 42.2 °F 29.91 in Calm   2.3 mph 80 % 0.00 in
19:29 47.9 °F 42.0 °F 29.91 in NNW 1.6 mph 3.5 mph 80 % 0.00 in
19:34 47.6 °F 41.7 °F 29.92 in NNW 1.2 mph 3.5 mph 80 % 0.00 in
19:39 47.3 °F 41.1 °F 29.92 in WNW 1.5 mph 3.5 mph 79 % 0.00 in
19:44 47.2 °F 41.3 °F 29.92 in NNW 1.6 mph 3.5 mph 80 % 0.00 in
19:49 47.1 °F 41.2 °F 29.92 in NNW 1.4 mph 3.5 mph 80 % 0.00 in
19:54 47.0 °F 40.8 °F 29.92 in NNW 0.1 mph 2.3 mph 79 % 0.00 in
19:59 46.9 °F 40.7 °F 29.92 in Calm     79 % 0.00 in
20:04 46.9 °F 41.4 °F 29.93 in Calm     81 % 0.00 in
20:09 46.7 °F 41.2 °F 29.93 in Calm     81 % 0.00 in
20:20 46.4 °F 40.9 °F 29.93 in NNW 0.4 mph 1.0 mph 81 % 0.00 in
20:25 46.3 °F 40.8 °F 29.93 in NNW 0.1 mph 2.3 mph 81 % 0.00 in
20:30 46.1 °F 40.6 °F 29.93 in NNW 0.6 mph 2.3 mph 81 % 0.00 in
20:35 46.0 °F 40.5 °F 29.93 in NNE 3.3 mph 4.6 mph 81 % 0.00 in
20:40 45.6 °F 39.8 °F 29.93 in North 4.6 mph 8.1 mph 80 % 0.00 in
20:45 45.4 °F 39.6 °F 29.93 in NE 3.6 mph 6.9 mph 80 % 0.00 in
20:50 45.0 °F 39.5 °F 29.93 in NE 5.8 mph 8.0 mph 81 % 0.00 in
20:55 44.8 °F 39.6 °F 29.94 in NNE 7.4 mph 8.1 mph 82 % 0.00 in
21:00 44.5 °F 39.7 °F 29.94 in East 6.8 mph 10.4 mph 83 % 0.00 in
21:05 44.0 °F 39.5 °F 29.94 in ENE 2.9 mph 4.6 mph 84 % 0.00 in
21:11 43.6 °F 39.4 °F 29.95 in ENE 1.6 mph 3.5 mph 85 % 0.01 in
21:16 43.3 °F 39.4 °F 29.95 in NNE 4.3 mph 6.9 mph 86 % 0.01 in
21:21 43.0 °F 39.1 °F 29.95 in ENE 3.5 mph 4.6 mph 86 % 0.01 in
21:26 42.7 °F 39.1 °F 29.96 in NE 1.6 mph 3.5 mph 87 % 0.01 in
21:31 42.5 °F 38.9 °F 29.96 in ENE 3.0 mph 6.9 mph 87 % 0.01 in
21:36 42.2 °F 38.9 °F 29.96 in NE 1.6 mph 2.3 mph 88 % 0.01 in
21:41 42.0 °F 38.7 °F 29.96 in ENE 2.4 mph 4.6 mph 88 % 0.01 in
21:46 41.7 °F 38.7 °F 29.95 in ENE 3.8 mph 4.6 mph 89 % 0.01 in
21:51 41.4 °F 38.7 °F 29.95 in ENE 3.9 mph 6.9 mph 90 % 0.01 in
21:56 41.2 °F 38.5 °F 29.95 in ENE 2.8 mph 3.5 mph 90 % 0.01 in
22:02 41.0 °F 38.3 °F 29.96 in ENE 3.0 mph 3.5 mph 90 % 0.01 in
22:07 40.9 °F 38.5 °F 29.96 in ENE 3.3 mph 6.9 mph 91 % 0.01 in
22:12 40.8 °F 38.4 °F 29.96 in ENE 3.9 mph 8.1 mph 91 % 0.00 in
22:17 40.8 °F 38.4 °F 29.96 in East 2.8 mph 5.0 mph 91 % 0.00 in
22:22 40.7 °F 38.3 °F 29.96 in ENE 3.1 mph 5.0 mph 91 % 0.00 in
22:32 40.6 °F 38.2 °F 29.95 in ENE 3.7 mph 5.8 mph 91 % 0.00 in
22:37 40.5 °F 38.1 °F 29.95 in ENE 2.2 mph 4.6 mph 91 % 0.00 in
22:42 40.4 °F 38.0 °F 29.95 in East 1.6 mph 3.5 mph 91 % 0.00 in
22:48 40.4 °F 38.3 °F 29.95 in East 1.7 mph 3.5 mph 92 % 0.00 in
22:53 40.4 °F 38.3 °F 29.96 in ENE 1.7 mph 3.5 mph 92 % 0.01 in
23:03 40.3 °F 38.2 °F 29.96 in ENE 1.1 mph 2.3 mph 92 % 0.01 in
23:08 40.2 °F 38.1 °F 29.96 in ENE 0.3 mph 2.3 mph 92 % 0.01 in
23:13 40.1 °F 38.0 °F 29.96 in ENE 1.5 mph 3.5 mph 92 % 0.01 in
23:18 40.1 °F 38.0 °F 29.96 in ENE 2.2 mph 3.5 mph 92 % 0.01 in
23:23 40.0 °F 37.9 °F 29.96 in NE 2.3 mph 3.5 mph 92 % 0.01 in
23:28 40.0 °F 38.1 °F 29.97 in ENE 1.4 mph 3.5 mph 93 % 0.01 in
23:33 39.9 °F 38.0 °F 29.96 in ENE 3.0 mph 4.0 mph 93 % 0.01 in
23:39 39.9 °F 38.0 °F 29.96 in NNE 4.2 mph 6.0 mph 93 % 0.01 in
23:44 39.9 °F 37.8 °F 29.97 in NE 7.0 mph 9.2 mph 92 % 0.01 in
23:49 39.9 °F 37.5 °F 29.96 in North 3.2 mph 4.6 mph 91 % 0.00 in
23:54 39.9 °F 37.5 °F 29.95 in ENE 6.2 mph 10.4 mph 91 % 0.00 in
23:59 39.9 °F 37.2 °F 29.95 in ENE 7.5 mph 11.5 mph 90 % 0.00 in
Crab Meadow Weather
Compliments of Weather Underground - 2.75 mb

Script developed by  Jim McMurry - jmcmurry@mwt.net Adapted for the template by  Wim van der Kuil - Leuven-Template.eu

Weather Terms: Tornado Watch - Conditions are favorable for the development of severe thunderstorms and tornadoes in and close to the watch area. These watches are issued for large areas by the Storm Prediction Center in Norman, Oklahoma, and are usually valid for four to six hours.